sat.trackr.live / text

‹ back to catalog

ONEWEB-0094

NORAD 45450 · 2020-020AC

PAYLOAD ACTIVE UNKNOWN

§ Identity

Operator
Country
UK
Launch date
2020-03-21
Launch site
TYMSC
Launch vehicle
Mass (kg)
RCS (m²)

Purposes: comms

External: N2YO · Heavens-Above · Gunter

§ Orbital elements

Epoch: 2026-09-20T04:46:42.335040Z

Period
109.29 min
Inclination
87.9207°
Eccentricity
0.0001960
Mean motion
13.17646816 rev/d
Perigee alt
1,192.2 km
Apogee alt
1,195.2 km
Semi-major
7,571.9 km
B*
4.8939e-4
RAAN
346.9897°
Arg perigee
92.5114°
Mean anomaly
267.6242°
Rev number
31,882

§ Raw data

ONEWEB-00941 45450U 20020AC  26263.19910110  .00000203  00000+0  48939-3 0  99932 45450  87.9207 346.9897 0001960  92.5114 267.6242 13.17646816318821

JSON: /api/v1/satellites/45450 · /tle

For live sub-satellite position, see the globe view (requires WebGL).

§ Visibility from observer

Set your observer location to see the next 7 days of passes ≥ 10°. The values pass through the URL so the page stays shareable.

No JS? Fill the form by hand. The geolocation button needs JavaScript.